KAZSTSAT

Last updated on Sun Jun 21 2026 00:02:52 GMT+0000 (Coordinated Universal Time)

1 43783U 18099AB 26171.03293079 .00001425 00000+0 11946-3 0 9997 2 43783 97.4272 202.8318 0008602 62.2449 297.9646 14.99874388411735
UTC large
Height (km)
Speed (km/s)
/
Latitude / Longitude
Inclination (degrees)
Orbital Period (minutes)
Azimuth
Elevation
Range (km)
Doppler Factor

Next 0 passes for location: London (51.5072 / 0.1276)

No passes found over London.
KAZSTSAT